COSMOS 1670 DEB

Satellite information

Favourite Embed

Satellite Type and Status

DEBRISIN ORBIT

Key statistics

Satellite COSMOS 1670 DEB at a glance.

Uptime

14745

Days in orbit

Revolutions

≈ 14.5

Per day

Orbit

LEO

Low Earth Orbit

Inclination

64.9

Latest

Satellite identification and parameters

Extended collection of information and parameters for COSMOS 1670 DEB.

Object identification

Identified? True

Debris? True

Object name: COSMOS 1670 DEB

International designator: 1985-064F

Object number (NORAD): 44569

Object ID (CCSDS): 44569

Country: COMMONWEALTH OF INDEPENDENT STATES (CIS)

Current information (Y/N): Y

RCS size: SMALL

Orbital parameters

Period: 98.985 minutes

Inclination: 64.9002 deg

SMA: 7088.274 km

Apoapsis: 720.803 km

Periapsis: 699.475 km

RAAN: 171.2536 deg

Eccentricy: 0.00150448

Argument of periapsis: 62.3715 deg

Mean anomaly: 114.2443 deg

Mean motion: 14.54762278 rev/day

Mean motion (dot): 0.00049512 rev/day2

B* drag term: 0.01144714 1/REarth

Two-line elements (TLE)

Creation date: Dec. 13, 2025, 5:47 p.m.

Reference frame: TEME

Reference center: EARTH

Epoch: Dec. 13, 2025, 6:22 a.m. UTC

TLE line 0: 0 COSMOS 1670 DEB

TLE line 1: 1 44569U 85064F 25347.26581824 .00049512 00000-0 11447-1 0 9997

TLE line 2: 2 44569 64.9002 171.2536 0015045 62.3715 114.2443 14.54762278 78982

Live tracking on map

Real-time ground track for satellite COSMOS 1670 DEB.

In-orbit conjunctions

A list of the most updated potential collisions computed for object COSMOS 1670 DEB.

Target Orbit TCA Probability of collision Miss distance Type
SL-8 R/B LEO 2025-03-02 19:54:29 0.0006205422 139.0 (m) ROCKET BODY
SL-8 R/B LEO 2025-03-02 18:14:20 0.0001600552 746.0 (m) ROCKET BODY

Associated space launch

Active radar satellite for ocean surveillance powered by a nuclear reactor.

COSMOS 1670 DEB was lifted into orbit during the mission ‘Tsiklon-2 | US-A 26’, on board a Tsiklon-2 space rocket.

The launch took place on Aug. 1, 1985, 5:36 a.m. from 90.

For more information about the launch, click the button.

Launch to space Tsiklon-2 | US-A 26
Tsiklon-2 | US-A 26

Agency: N/A

Status: Launch Successful

Launch date: Aug. 1, 1985, 5:36 a.m. UTC

Rocket: Tsiklon-2

Launch pad: 90

Location: Baikonur Cosmodrome, Republic of Kazakhstan

...

Latest news about this satellite

There are no fresh news available about this satellite. Check back as we update our databases every day.


Newsletter sign-up

Weekly statistics, charts and insights to help you stay on top of the space industry.